EHI
0 0 0 0 0 0 0 0 0 0 0 0 0 0 0 0 0 0 0 0 0 0 0 0 0 0 0 0 0 0 0 0 0 0 0 0 0 0 0 0 0 0 0 0
0 0 0 0 0 0 0 0 0 0 0 0 0 0 0 0 0 0 0 0 0 0 0 0 0 0 0 0 0 0 0 0 0 0 0 0 0 0 0 0 0 0 0 0
0 0 0 0 0 0 0 0 0 0 0 0 0 0 0 0 0 0 0 0 0 0 0 0 0 0 0 0 0 0 0 0 0 0 0 0 0 0 0 0 0 0 0 0
0 0 0 0 0 0 0 0 0 0 0 0 0 0 0 0 0 0 0 0 0 0 0 0 0 0 0 0 0 0 0 0 0 0 0 0 0 0 0 0 0 0 0 0
0 0 0 0 0 0 0 0 0 0 0 0 0 0 0 0 0 0 0 0 0 0 0 0 0 0 0 0 0 0 0 0 0 0 0 0 0 0 0 0 0 0 0 0
0 0 0 0 0 0 0 0 0 0 0 0 0 0 0 0 0 0 0 0 0 0 0 0 0 0 0 0 0 0 0 0 0 0 0 0 0 0 0 0 0 0 0 0
0 0 0 0 0 0 0 0 0 0 0 0 0 0 0 0 0 0 0 0 0 0 0 0 0 0 0 0 0 0 0 0 0 0 0 0 0 0 0 0 0 0 0 0
0 0 0 0 0 0 0 0 0 0 0 0 0 0 0 0 0 0 0 0 0 0 0 0 0 0 0 0 0 0 0 0 0 0 0 0 0 0 0 0 0 0 0 0
0 0 0 0 0 0 0 0 0 0 0 0 0 0 0 0 0 0 0 0 0 0 0 0 0 0 0 0 0 0 0 0 0 0 0 0 0 0 0 0 0 0 0 0
0 0 0 0 0 0 0 0 0 0 0 0 0 0 0 0 0 0 0 0 0 0 0 0 0 0 0 0 0 0 0 0 0 0 0 0 0 0 0 0 0 0 0 0
0 0 0 0 0 0 0 0 0 0 0 0 0 0 0 0 0 0 0 0 0 0 0 0 0 0 0 0 0 0 0 0 0 0 0 0 0 0 0 0 0 0 0 0
0 0 0 0 0 0 0 0 0 0 0 0 0 0 0 0 0 0 0 0 0 0 0 0 0 0 0 0 0 0 0 0 0 0 0 0 0 0 0 0 0 0 0 0
0 0 0 0 0 0 0 0 0 0 0 0 0 0 0 0 0 0 0 0 0 0 0 0 0 0 0 0 0 0 0 0 0 0 0 0 0 0 0 0 0 0 0 0
0 0 0 0 0 0 0 0 0 0 0 0 0 0 0 0 0 0 0 0 0 0 0 0 0 0 0 0 0 0 0 0 0 0 0 0 0 0 0 0 0 0 0 0
0 0 0 0 0 0 0 0 0 0 0 0 0 0 0 0 0 0 0 0 0 0 0 0 0 0 0 0 0 0 0 0 0 0 0 0 0 0 0 0 0 0 0 0
0 0 0 0 0 0 0 0 0 0 0 0 0 0 0 0 0 0 0 0 0 0 0 0 0 0 0 0 0 0 0 0 0 0 0 0 0 0 0 0 0 0 0 0
0 0 0 0 0 0 0 0 0 0 0 0 0 0 0 0 0 0 0 0 0 0 0 0 0 0 0 0 0 0 0 0 0 0 0 0 0 0 0 0 0 0 0 0
0 0 0 0 0 0 0 0 0 0 0 0 0 0 0 0 0 0 0 0 0 0 0 0 0 0 0 0 0 0 0 0 0 0 0 0 0 0 0 0 0 0 0 0
0 0 0 0 0 0 0 0 0 0 0 0 0 0 0 0 0 0 0 0 0 0 0 0 0 0 0 0 0 0 0 0 0 0 0 0 0 0 0 0 0 0 0 0
0 0 0 0 0 0 0 0 0 0 0 0 0 0 0 0 0 0 0 0 0 0 0 0 0 0 0 0 0 0 0 0 0 0 0 0 0 0 0 0 0 0 0 0
0 0 0 0 0 0 0 0 0 0 0 0 0 0 0 0 0 0 0 0 0 0 0 0 0 0 0 0 0 0 0 0 0 0 0 0 0 0 0 0 0 0 0 0
0 0 0 0 0 0 0 0 0 0 0 0 0 0 0 0 0 0 0 0 0 0 0 0 0 0 0 0 0 0 0 0 0 0 0 0 0 0 0 0 0 0 0 0
0 0 0 0 0 0 0 0 0 0 0 0 0 0 0 0 0 0 0 0 0 0 0 0 0 0 0 0 0 0 0 0 0 0 0 0 0 0 0 0 0 0 0 0
0 0 0 0 0 0 0 0 0 0 0 0 0 0 0 0 0 0 0 0 0 0 0 0 0 0 0 0 0 0 0 0 0 0 0 0 0 0 0 0 0 0 0 0
0 0 0 0 0 0 0 0 0 0 0 0 0 0 0 0 0 0 0 0 0 0 0 0 0 0 0 0 0 0 0 0 0 0 0 0 0 0 0 0 0 0 0 0
0 0 0 0 0 0 0 0 0 0 0 0 0 0 0 0 0 0 0 0 0 0 0 0 0 0 0 0 0 0 0 0 0 0 0 0 0 0 0 0 0 0 0 0
Wind_Speed
4 6 6 6 5 5 5 5 5 5 2 2 3 7 8 6 4 1 3 4 4 5 6 7 7 8 9 10 11 11 11 12 10 9 10 10 11 10 9 8 12 12 12 13
6 6 5 3 2 4 3 4 2 5 4 2 2 6 9 7 4 3 3 3 4 5 7 8 8 8 8 9 10 10 10 11 10 9 8 8 10 9 9 9 10 11 12 13
8 3 5 3 7 7 2 4 4 2 4 3 3 6 11 9 5 5 4 2 5 7 7 7 7 8 7 8 9 10 10 11 10 10 8 9 7 7 7 9 7 10 12 12
6 2 3 3 6 6 3 5 5 3 2 4 6 3 8 10 7 7 3 3 6 6 6 6 7 7 7 7 7 8 9 10 9 9 9 11 10 10 11 9 9 11 12 12
4 5 6 5 4 5 4 3 4 4 3 4 5 4 4 7 7 6 4 6 6 5 6 7 7 7 6 6 6 7 8 8 9 9 9 9 9 8 9 10 11 10 9 10
4 2 3 4 3 3 5 6 5 3 3 5 4 6 3 3 5 6 6 6 6 6 7 7 6 6 6 6 6 7 8 8 8 9 9 9 10 11 12 12 11 10 9 8
6 4 2 2 5 1 4 6 2 2 4 3 2 1 5 6 10 7 4 4 6 7 6 6 7 6 6 7 7 7 8 9 9 9 9 9 10 10 10 11 11 11 10 9
1 4 3 4 4 4 5 4 4 4 5 6 3 3 6 8 7 3 2 5 6 6 6 6 7 6 6 7 7 7 8 9 9 9 9 9 9 7 7 10 10 10 9 10
6 2 3 2 3 4 6 5 1 3 6 6 1 7 4 6 5 2 4 5 6 6 7 7 6 6 6 6 7 7 8 9 9 9 10 9 9 9 9 10 9 8 9 11
5 3 4 3 2 1 3 4 4 3 5 7 8 3 5 6 3 3 4 5 6 6 6 6 6 6 6 6 6 7 7 8 9 9 9 12 10 9 9 9 10 11 12 12
4 4 3 3 2 1 1 3 2 3 4 3 7 1 5 7 3 2 4 6 6 6 6 6 6 6 6 6 7 7 7 8 8 9 9 10 9 9 10 9 11 11 11 12
3 3 3 3 4 3 2 3 3 3 5 3 6 1 6 6 3 2 4 5 6 6 6 6 6 7 7 7 7 8 8 8 9 9 9 10 10 10 10 11 11 13 13 11
5 3 3 1 1 0 3 3 2 3 3 4 5 2 7 6 3 4 5 6 6 7 7 6 6 7 7 8 8 8 8 9 9 9 10 10 10 10 11 11 12 13 13 11
2 3 4 4 3 1 3 3 5 4 4 5 5 2 4 4 3 4 6 7 7 6 6 7 7 7 8 8 8 9 9 9 10 10 10 10 10 10 11 12 13 14 12 11
2 4 5 7 6 3 5 6 6 7 7 6 7 6 3 5 4 5 7 7 7 6 7 7 7 7 8 9 9 9 9 8 9 9 9 8 9 9 11 12 13 13 12 14
2 4 4 6 3 2 6 9 8 8 7 8 8 4 6 3 5 6 7 7 6 6 7 7 8 8 9 10 10 9 9 9 9 9 8 9 9 10 11 12 13 13 12 11
2 3 3 5 2 4 8 4 10 6 6 5 4 2 3 3 5 5 7 6 5 5 6 7 7 8 8 9 9 9 10 10 10 9 8 8 9 10 11 13 12 12 10 10
2 2 2 4 7 6 4 3 1 4 4 4 2 2 4 4 5 8 8 6 5 5 5 6 6 7 7 7 8 8 9 10 10 9 9 9 10 10 10 10 10 9 8 9
3 2 2 2 4 10 3 3 2 2 5 4 4 4 5 5 3 6 6 5 4 4 4 4 5 6 7 8 8 9 10 10 9 10 10 10 10 10 10 10 9 9 8 8
2 2 1 2 3 8 3 5 3 2 5 4 5 5 5 3 1 2 3 4 3 3 3 4 5 6 7 8 8 8 10 10 11 11 11 11 10 10 10 10 9 8 8 8
3 3 3 4 6 12 3 6 5 3 4 6 6 6 5 3 3 5 5 4 3 4 4 5 6 6 7 7 7 9 10 10 11 11 11 11 10 10 9 8 8 8 8 9
7 6 6 5 6 12 7 8 7 6 5 6 6 6 6 7 8 7 5 3 3 4 5 5 6 7 7 7 7 9 9 10 10 11 11 10 10 10 10 8 7 7 8 8
6 6 5 7 9 3 8 6 4 7 7 6 6 7 7 7 7 6 4 3 3 4 4 5 6 7 7 6 7 8 9 10 11 11 10 10 11 8 8 8 7 6 6 6
5 3 1 6 6 6 7 6 6 6 7 8 8 8 7 7 7 6 4 3 3 3 4 4 6 7 7 7 7 7 8 9 10 11 10 10 10 9 8 8 8 6 5 5
4 7 4 8 4 4 6 7 7 8 10 11 8 7 7 8 7 5 3 2 2 2 3 4 5 6 7 8 8 8 8 9 10 10 8 9 10 8 7 8 8 9 5 8
7 9 9 8 6 8 7 11 11 12 10 11 10 8 7 7 8 6 4 3 1 2 3 4 5 6 7 7 8 7 8 8 9 10 8 7 7 7 7 6 8 15 16 17
Wind_Direction
29 50 34 9 357 321 339 353 72 111 118 272 222 149 160 171 198 150 55 29 27 48 44 42 37 37 23 14 6 358 357 352 352 353 345 342 339 335 331 338 343 339 339 338
94 54 358 326 315 309 343 335 74 131 131 265 217 189 167 173 177 77 10 341 356 37 30 26 26 32 23 15 4 354 356 350 352 350 340 335 329 326 328 336 330 333 337 335
78 38 317 0 20 345 339 23 357 343 132 244 261 233 175 166 154 154 226 277 29 32 25 16 19 27 21 17 4 353 350 347 348 347 339 335 325 327 333 334 330 335 336 333
76 23 325 47 40 348 23 35 326 285 222 226 173 272 165 164 177 195 193 61 42 39 25 18 23 22 18 17 2 348 344 344 346 346 341 339 339 336 334 331 329 333 332 330
79 18 10 32 23 346 337 341 286 276 241 271 192 246 126 151 191 181 105 56 41 36 29 30 27 20 17 15 0 346 342 343 343 345 340 337 333 330 327 328 329 329 327 328
109 96 35 357 295 258 290 263 232 251 244 263 198 184 150 183 160 106 65 39 30 27 31 31 21 16 16 11 358 345 343 341 342 342 340 338 333 333 331 333 331 329 327 329
145 125 95 335 307 215 311 323 303 262 225 223 98 219 94 79 75 75 51 27 33 26 29 22 13 11 9 0 352 346 345 340 342 341 340 335 333 331 329 331 329 329 330 331
200 129 53 26 18 327 323 347 17 318 311 314 214 134 111 107 101 99 56 46 33 27 30 25 15 14 3 354 350 348 345 340 340 340 337 331 331 328 325 326 325 327 327 324
357 78 137 70 6 339 342 33 24 281 278 276 239 97 134 137 154 110 43 41 32 31 32 23 11 9 359 352 350 347 343 339 338 338 334 328 330 326 324 324 323 325 324 325
333 314 131 136 219 181 351 338 316 301 324 307 296 113 170 169 134 42 23 37 32 34 31 17 8 4 357 353 348 346 341 337 334 335 333 333 326 324 325 325 326 327 325 325
332 306 175 192 235 56 211 228 267 274 245 269 294 328 98 118 102 24 28 47 39 38 32 14 6 358 352 352 348 343 339 337 335 333 330 326 324 327 329 328 327 326 323 326
29 321 284 104 66 27 328 327 335 302 304 282 280 292 125 137 155 79 53 58 53 49 34 16 5 353 351 350 346 344 340 339 335 331 329 326 328 330 330 328 328 325 322 326
356 302 283 281 163 211 233 203 249 307 292 267 269 310 162 179 135 69 61 64 53 42 25 12 1 351 349 346 344 342 341 339 332 332 328 327 328 329 328 327 327 322 320 324
331 287 268 288 328 29 271 199 193 216 240 255 254 359 177 147 70 49 61 66 52 35 18 5 355 348 346 344 342 339 340 332 331 330 323 323 324 326 325 325 322 318 320 322
290 283 286 286 278 229 251 262 248 219 231 254 281 339 49 100 60 54 64 61 40 20 10 2 351 344 342 342 337 335 330 326 326 319 316 316 319 321 321 321 319 321 323 323
233 283 297 286 219 211 256 238 236 248 242 251 277 303 107 76 55 53 68 57 32 13 4 355 347 343 341 336 331 329 324 325 319 314 313 317 322 323 322 322 326 327 324 320
198 284 293 284 281 263 272 248 194 209 210 223 256 127 110 49 40 55 84 68 35 16 360 348 342 339 331 324 325 327 329 321 317 317 320 324 323 322 324 328 327 324 322 324
317 267 267 295 339 270 248 16 35 210 230 216 223 109 104 74 59 86 84 71 40 19 356 341 334 324 316 319 326 327 322 318 321 329 333 329 325 322 323 324 323 321 321 321
339 302 296 338 296 277 232 180 173 201 269 198 182 135 101 64 68 90 73 71 52 24 0 335 324 316 324 326 325 326 323 324 332 338 337 331 325 324 326 327 326 325 322 320
297 301 282 169 247 262 253 126 91 73 263 149 136 130 107 75 306 158 104 79 57 26 358 340 332 331 328 319 324 331 328 334 340 339 334 327 326 328 329 330 328 327 328 330
187 201 213 215 239 267 144 131 122 168 247 141 131 124 120 126 139 132 116 83 51 27 1 354 342 331 317 319 334 333 332 338 335 333 328 329 330 330 331 330 328 329 334 336
187 194 215 201 229 258 148 149 190 205 127 129 123 120 120 115 115 117 108 88 51 21 2 355 339 324 319 331 341 334 334 331 333 332 332 333 332 334 342 332 331 334 339 343
211 205 212 209 223 188 163 181 159 133 141 129 121 119 123 128 130 123 117 98 60 25 359 345 330 321 326 339 345 335 328 334 336 334 335 335 334 335 338 338 337 339 344 349
219 118 238 277 260 186 182 131 138 144 130 120 122 126 130 130 128 125 121 96 59 20 354 339 330 329 331 339 339 328 329 339 337 334 337 339 339 340 341 346 347 344 344 351
224 156 219 254 246 129 178 156 145 115 111 111 112 119 131 129 133 139 142 112 68 10 344 335 330 326 327 330 331 330 340 342 336 333 339 341 341 338 343 349 350 354 351 5
205 185 194 231 211 180 194 163 143 138 140 139 133 128 130 135 141 147 155 129 85 356 339 336 331 327 322 325 328 333 345 342 336 337 343 341 340 342 345 345 348 359 4 8